Hayward, WI

10:57 AM CDT on June 24, 2018 (GMT -0500)
Sawyer County

Weather History for KHYR - January, 2016

Change the Weather History Date:

Friday, January 1, 2016

  Actual Average Record
Temperature  
Mean Temperature 16 °F -  
Max Temperature 23 °F 31 °F 37 °F (1949)
Min Temperature 10 °F 1 °F -24 °F (1999)
Degree Days  
Heating Degree Days 48    
Moisture  
Dew Point 12 °F    
Average Humidity 82    
Maximum Humidity 92    
Minimum Humidity 72    
Precipitation  
Precipitation 0.00 in - - ()
Sea Level Pressure  
Sea Level Pressure 30.02 in    
Wind  
Wind Speed 6 mph (SW)    
Max Wind Speed 12 mph    
Max Gust Speed 17 mph    
Visibility 9 miles    
Events Snow    
Averages and records for this station are not official NWS values.
T = Trace of Precipitation, MM = Missing Value Source: NWS Daily Summary

Daily Weather History Graph

Daily Weather History Graph

Search for Another Location

Airport or City:

Astronomy

Jan. 01, 2016 Rise Set
Actual Time 7:47 AM CST 4:30 PM CST
Civil Twilight 7:13 AM CST 5:05 PM CST
Nautical Twilight 6:35 AM CST 5:43 PM CST
Astronomical Twilight 5:59 AM CST 6:19 PM CST
Moon No Moon Rise 11:37 AM CST (1/1)
Length of Visible Light 9h 51m
Length of Day
8h 42m
Waning Gibbous, 55% of the Moon is Illuminated
Jan 1
Waning Gibbous
Jan 1
Last Quarter
Jan 9
New
Jan 16
First Quarter
Jan 23
Full

Hourly Weather History & Observations

Time (CST) Temp. Windchill Dew Point Humidity Pressure Visibility Wind Dir Wind Speed Gust Speed Precip Events Conditions
12:19 AM 16.0 °F 7.4 °F 10.9 °F 81% 30.01 in 9.0 mi WSW 5.8 mph - N/A   Overcast
12:38 AM 16.0 °F 10.4 °F 12.0 °F 84% 30.02 in 9.0 mi WSW 3.5 mph - N/A   Overcast
12:53 AM 16.0 °F 8.8 °F 12.0 °F 84% 30.09 in 8.0 mi WSW 4.6 mph - N/A   Overcast
1:41 AM 17.1 °F 8.7 °F 12.0 °F 81% 30.02 in 5.0 mi WSW 5.8 mph - 0.00 in Snow Light Snow
1:53 AM 17.1 °F 7.6 °F 12.0 °F 81% 30.10 in 4.0 mi Variable 6.9 mph - 0.00 in Snow Light Snow
2:50 AM 15.8 °F 7.2 °F 12.2 °F 86% 30.01 in 6.0 mi WSW 5.8 mph - 0.00 in   Overcast
2:53 AM 16.0 °F 6.3 °F 12.0 °F 84% 30.09 in 7.0 mi WSW 6.9 mph - 0.00 in   Overcast
3:50 AM 15.8 °F 5.1 °F 10.4 °F 79% 30.01 in 8.0 mi WSW 8.1 mph - 0.00 in   Overcast
3:53 AM 16.0 °F 4.4 °F 10.9 °F 81% 30.08 in 9.0 mi WSW 9.2 mph - 0.00 in   Overcast
4:26 AM 16.0 °F 6.3 °F 10.9 °F 81% 29.99 in 9.0 mi WSW 6.9 mph - N/A   Overcast
4:53 AM 16.0 °F 4.4 °F 10.9 °F 81% 30.06 in 10.0 mi WSW 9.2 mph - N/A   Overcast
5:53 AM 16.0 °F 6.3 °F 12.0 °F 84% 30.06 in 10.0 mi SW 6.9 mph - N/A   Overcast
6:18 AM 16.0 °F 5.3 °F 12.0 °F 84% 29.97 in 10.0 mi SW 8.1 mph - N/A   Overcast
6:53 AM 17.1 °F 6.6 °F 12.9 °F 84% 30.05 in 9.0 mi SW 8.1 mph - N/A   Overcast
7:53 AM 17.1 °F 4.3 °F 12.9 °F 84% 30.02 in 10.0 mi SW 11.5 mph - N/A   Overcast
8:26 AM 17.1 °F 6.6 °F 12.9 °F 84% 29.95 in 10.0 mi WSW 8.1 mph - N/A   Overcast
8:53 AM 17.1 °F 5.0 °F 12.9 °F 84% 30.00 in 10.0 mi SSW 10.4 mph - N/A   Overcast
9:53 AM 18.0 °F 5.4 °F 14.0 °F 84% 29.97 in 10.0 mi SSW 11.5 mph - N/A   Overcast
10:53 AM 19.9 °F 10.1 °F 14.0 °F 78% 30.01 in 10.0 mi SW 8.1 mph - N/A   Overcast
11:08 AM 19.9 °F 11.1 °F 14.0 °F 78% 29.93 in 10.0 mi SW 6.9 mph 17.3 mph N/A   Overcast
11:53 AM 19.9 °F 10.1 °F 14.0 °F 78% 29.97 in 10.0 mi SW 8.1 mph - N/A   Overcast
12:53 PM 21.9 °F 14.5 °F 15.1 °F 75% 29.97 in 10.0 mi Variable 5.8 mph - N/A   Overcast
1:53 PM 21.9 °F 15.7 °F 15.1 °F 75% 29.97 in 10.0 mi WNW 4.6 mph - N/A   Overcast
2:53 PM 23.0 °F 15.8 °F 15.1 °F 72% 29.98 in 10.0 mi Variable 5.8 mph - N/A   Overcast
3:53 PM 23.0 °F 17.0 °F 16.0 °F 74% 30.00 in 10.0 mi WSW 4.6 mph - N/A   Overcast
4:50 PM 21.2 °F 16.4 °F 15.8 °F 80% 29.96 in 10.0 mi SW 3.5 mph - N/A   Scattered Clouds
4:53 PM 21.9 °F 17.2 °F 15.1 °F 75% 30.03 in 10.0 mi SW 3.5 mph - N/A   Partly Cloudy
5:53 PM 15.1 °F - 12.0 °F 88% 30.04 in 10.0 mi Calm Calm - N/A   Clear
6:53 PM 12.9 °F - 10.9 °F 92% 30.05 in 10.0 mi Calm Calm - N/A   Clear
7:53 PM 10.9 °F 4.7 °F 8.1 °F 88% 30.05 in 10.0 mi SSW 3.5 mph - N/A   Clear
8:53 PM 10.0 °F 3.6 °F 8.1 °F 92% 30.06 in 9.0 mi South 3.5 mph - N/A   Clear
9:53 PM 10.9 °F 2.9 °F 6.1 °F 81% 30.07 in 10.0 mi South 4.6 mph - N/A   Clear
10:53 PM 10.9 °F 4.7 °F 7.0 °F 84% 30.08 in 10.0 mi South 3.5 mph - N/A   Clear
11:53 PM 12.0 °F 5.9 °F 9.0 °F 88% 30.08 in 10.0 mi SW 3.5 mph - N/A   Clear